[[{"header":{"parameterUnit":"m.s-1","parameterCategory":1,"la1":30.2991,"la2":30.254,"lo1":-89.0895,"lo2":-89.0444,"dy":0.0017,"dx":0.0017,"nx":28,"ny":28,"refTime":"2024-02-05T09:00:00:Z","depth":0,"parameterNumber":2,"parameterNumberName":"U-component_of_WINDS"},"data":[0,0,0,0,0,0,0,0,0,0,0,0,0,0,0,0,0,0,0,0,0,0,0,0,0,0,0,0,0,0,0,0,0,0,0,0,0,0,0,0,0,0,0,0,0,0,0,0,0,0,0,0,0,0,0,0,0,0,1.011,1.011,0,1.0093,1.0093,1.0093,1.0075,1.0075,1.0075,1.0075,1.0055,1.0055,1.0055,0,0,0,0,0,0,0,0,0,0,0,0,0,1.0127,1.0127,1.011,1.011,1.011,1.0093,1.0093,1.0093,1.0075,1.0075,1.0075,1.0075,1.0055,1.0055,1.0054,0,0,0,0,0,0,0,0,0,0,0,0,0,1.0116,1.0127,1.0111,1.0099,1.0098,1.0093,1.0093,1.0093,1.0075,1.0075,1.0075,1.0074,1.0055,1.0055,1.0054,1.0059,0,0,1.0053,1.0053,0,0,0,0,0,0,0,0,1.0117,1.0115,1.0101,1.01,1.0099,1.0086,1.0092,1.0081,1.0076,1.0084,1.0075,1.0074,1.0066,1.0064,1.0062,1.0058,1.0057,1.0053,1.0053,1.0053,1.0052,0,0,0,0,0,0,0,1.0118,1.0116,1.0104,1.0101,1.01,1.0095,1.0093,1.009,1.0077,1.0083,1.0082,1.008,1.0065,1.0062,1.0061,1.0057,1.0053,1.0053,1.0052,1.0052,1.0057,1.0057,0,0,0,0,0,0,1.012,1.0117,1.0104,1.0103,1.0107,1.0095,1.0093,1.0091,1.0077,1.0075,1.0081,1.008,1.0063,1.0062,1.006,1.0066,1.0053,1.0052,1.0052,1.0057,1.0057,1.0058,0,0,0,0,0,0,1.0121,1.0119,1.0105,1.011,1.0108,1.0095,1.0093,1.009,1.0088,1.0075,1.0072,1.008,1.0063,1.0061,1.006,1.0065,1.0052,1.0052,1.0056,1.0057,1.0057,1.0075,0,0,0,0,0,0,1.0121,1.0119,1.0121,1.011,1.0107,1.0105,1.0093,1.009,1.0087,1.0086,1.0074,1.0072,1.0062,1.0061,1.0059,1.0064,1.0051,1.0056,1.0056,1.0057,1.0074,1.0076,1.0078,0,0,0,0,0,1.0122,1.0126,1.0121,1.012,1.0109,1.0105,1.0103,1.0093,1.0088,1.0089,1.0081,1.0072,1.0064,1.0061,1.0059,1.0063,1.0055,1.0056,1.0057,1.0073,1.0076,1.0078,0,0,0,0,0,0,1.0137,1.0124,1.0119,1.0119,1.0114,1.0102,1.0103,1.0096,1.0091,1.009,1.0077,1.0074,1.0075,1.0069,1.0065,1.0068,1.0059,1.0059,1.0071,1.0074,1.0076,1.0077,1.0051,0,0,0,0,0,1.014,1.0138,1.0127,1.0129,1.0127,1.0116,1.0113,1.0106,1.0099,1.0097,1.0088,1.0082,1.0078,1.0076,1.0071,1.0073,1.0071,1.0076,1.0078,1.008,1.008,1.0082,1.0084,1.0061,1.0061,1.0061,0,0,1.0147,1.014,1.0139,1.0132,1.0126,1.0125,1.0114,1.0112,1.0111,1.0096,1.0095,1.0089,1.0081,1.0082,1.0081,1.0077,1.0086,1.0081,1.0082,1.0082,1.0083,1.0086,1.0088,1.0061,1.0061,1.0061,0,0,1.0159,1.0153,1.0155,1.015,1.0143,1.0136,1.0136,1.0126,1.0122,1.0121,1.011,1.0109,1.0102,1.0097,1.0094,1.0106,1.0098,1.0105,1.0115,1.0117,1.0119,1.0121,1.0126,1.0128,1.0105,1.0106,1.0106,0,1.0168,1.0166,1.0156,1.0156,1.0153,1.0141,1.0143,1.0138,1.013,1.0128,1.0123,1.0116,1.0109,1.011,1.0113,1.011,1.0111,1.0106,1.012,1.0121,1.0123,1.0127,1.0129,1.0106,1.0106,1.0106,1.0106,0,1.0178,1.0176,1.0178,1.0172,1.0169,1.0169,1.016,1.0159,1.0153,1.0146,1.0146,1.0138,1.0133,1.0132,1.0125,1.0132,1.0129,1.0122,1.0113,1.0126,1.013,1.0132,1.0108,1.0108,1.0107,1.0107,0,0,1.0197,1.0186,1.0187,1.0185,1.0177,1.0175,1.0176,1.0171,1.0171,1.0166,1.0166,1.0162,1.0156,1.0152,1.0145,1.0147,1.0158,1.014,1.0139,1.0144,1.0166,1.0171,1.0173,1.0153,1.0153,1.0153,1.0167,0,1.0207,1.0208,1.02,1.0203,1.0202,1.0192,1.0192,1.0187,1.0182,1.018,1.0174,1.0172,1.0164,1.0162,1.0163,1.0156,1.0162,1.0155,1.0153,1.0153,1.0155,1.0176,1.0181,1.0194,1.0168,1.0169,1.0169,0,1.0219,1.0216,1.0219,1.0213,1.0212,1.0212,1.0209,1.0207,1.0202,1.0198,1.0195,1.0188,1.0188,1.018,1.018,1.0176,1.0174,1.0171,1.0172,1.0171,1.0162,1.0175,1.0197,1.0199,1.0171,1.0171,1.0171,0,1.0234,1.023,1.0232,1.023,1.0222,1.0223,1.022,1.0214,1.0213,1.0209,1.0208,1.0205,1.0203,1.0201,1.0193,1.0187,1.0195,1.0185,1.0191,1.0192,1.0193,1.0193,1.0215,1.0192,1.0192,1.0192,1.0192,0,1.0246,1.0248,1.0239,1.024,1.0242,1.0234,1.0236,1.0232,1.0228,1.0228,1.0219,1.0219,1.0208,1.0207,1.0201,1.0203,1.0202,1.0199,1.0197,1.02,1.02,1.0199,1.0198,1.0193,1.0192,1.0192,1.0192,0,1.0262,1.0256,1.0257,1.025,1.0249,1.0251,1.0245,1.0246,1.0241,1.0241,1.0241,1.0232,1.0231,1.0223,1.022,1.0216,1.022,1.0216,1.0222,1.0221,1.0228,1.0227,1.0249,1.0252,1.0228,1.0228,1.0228,0,1.027,1.0272,1.0266,1.0266,1.0264,1.0263,1.0262,1.0254,1.0254,1.0249,1.0251,1.0249,1.0247,1.0246,1.0239,1.0237,1.0234,1.0242,1.0233,1.0236,1.0234,1.0234,1.0235,1.0243,1.0244,1.0244,1.0244,0,1.0286,1.0283,1.0282,1.0281,1.028,1.0278,1.0276,1.0276,1.0268,1.0267,1.0267,1.0266,1.0263,1.0262,1.0259,1.0255,1.0249,1.0247,1.0248,1.0251,1.0254,1.0253,1.0227,1.0246,1.0246,1.0246,1.0246,1.0246,1.0299,1.03,1.0297,1.0297,1.0294,1.0293,1.0294,1.029,1.0289,1.0287,1.0282,1.0283,1.0279,1.0274,1.0272,1.0272,1.0268,1.027,1.027,1.0271,1.0272,1.0255,1.0271,1.0271,1.0271,1.0271,1.0271,0,1.0314,1.0312,1.0312,1.031,1.031,1.0305,1.0302,1.0302,1.0303,1.03,1.0299,1.0299,1.0299,1.0293,1.0292,1.0293,1.029,1.0293,1.0293,1.0292,1.0276,1.0275,1.0296,1.0296,1.0296,1.0296,1.0296,1.0296,1.0323,1.0325,1.0323,1.0325,1.0322,1.0323,1.0322,1.0321,1.0319,1.032,1.032,1.0316,1.0313,1.0311,1.0311,1.0309,1.0309,1.0313,1.0311,1.0296,1.0293,1.0291,1.029,1.0313,1.0314,1.0327,1.0327,1.0327]},{"header":{"parameterUnit":"m.s-1","parameterCategory":1,"la1":30.2991,"la2":30.254,"lo1":-89.0895,"lo2":-89.0444,"dy":0.0017,"dx":0.0017,"nx":28,"ny":28,"refTime":"2024-02-05T09:00:00:Z","depth":0,"parameterNumber":3,"parameterNumberName":"V-component_of_WINDS"},"data":[0,0,0,0,0,0,0,0,0,0,0,0,0,0,0,0,0,0,0,0,0,0,0,0,0,0,0,0,0,0,0,0,0,0,0,0,0,0,0,0,0,0,0,0,0,0,0,0,0,0,0,0,0,0,0,0,0,0,-2.8964,-2.8965,0,-2.8994,-2.8994,-2.8995,-2.8979,-2.8978,-2.8977,-2.8976,-2.9005,-2.9006,-2.9008,0,0,0,0,0,0,0,0,0,0,0,0,0,-2.8894,-2.8895,-2.8964,-2.8965,-2.8965,-2.8994,-2.8994,-2.8995,-2.8979,-2.8978,-2.8977,-2.8976,-2.9004,-2.9006,-2.9008,0,0,0,0,0,0,0,0,0,0,0,0,0,-2.8924,-2.8896,-2.8964,-2.8961,-2.8961,-2.8994,-2.8994,-2.8995,-2.8979,-2.8978,-2.8977,-2.8976,-2.9004,-2.9006,-2.9008,-2.9046,0,0,-2.9015,-2.9016,0,0,0,0,0,0,0,0,-2.8922,-2.8927,-2.8961,-2.8961,-2.8961,-2.8981,-2.898,-2.9012,-2.8979,-2.8972,-2.8976,-2.8975,-2.8998,-2.9,-2.9009,-2.9047,-2.9048,-2.9015,-2.9016,-2.9017,-2.9018,0,0,0,0,0,0,0,-2.892,-2.8925,-2.8976,-2.8961,-2.8962,-2.8958,-2.8961,-2.8986,-2.8991,-2.8973,-2.8972,-2.8975,-2.8998,-2.9006,-2.9009,-2.9049,-2.9015,-2.9017,-2.9018,-2.9019,-2.9122,-2.9123,0,0,0,0,0,0,-2.8919,-2.8924,-2.8975,-2.8977,-2.8939,-2.896,-2.8963,-2.8976,-2.8991,-2.8992,-2.8976,-2.8974,-2.9003,-2.9007,-2.901,-2.9056,-2.9017,-2.902,-2.9021,-2.912,-2.9122,-2.9123,0,0,0,0,0,0,-2.8917,-2.8923,-2.8974,-2.895,-2.8956,-2.8962,-2.8977,-2.8977,-2.8986,-2.8994,-2.8994,-2.8984,-2.9002,-2.9007,-2.9038,-2.9057,-2.9021,-2.9023,-2.9119,-2.9121,-2.9123,-2.9148,0,0,0,0,0,0,-2.8915,-2.8923,-2.8937,-2.8951,-2.8958,-2.9001,-2.8978,-2.8979,-2.899,-2.8988,-2.9002,-2.9003,-2.9002,-2.9034,-2.904,-2.9059,-2.9024,-2.9117,-2.912,-2.9122,-2.9146,-2.9151,-2.9156,0,0,0,0,0,-2.8913,-2.8943,-2.8938,-2.8944,-2.8976,-2.9002,-2.9006,-2.9005,-2.8992,-2.9006,-2.9012,-2.9002,-2.9054,-2.9038,-2.9044,-2.9064,-2.9116,-2.9119,-2.9122,-2.9144,-2.915,-2.9155,0,0,0,0,0,0,-2.893,-2.8944,-2.8939,-2.8974,-2.8987,-2.8999,-2.9018,-2.9012,-2.9028,-2.9026,-2.9023,-2.9026,-2.9059,-2.9064,-2.9046,-2.9102,-2.9083,-2.9087,-2.9097,-2.9103,-2.9108,-2.9106,-2.9026,0,0,0,0,0,-2.8938,-2.8959,-2.897,-2.9,-2.9007,-2.9011,-2.9023,-2.9021,-2.9034,-2.9039,-2.9047,-2.906,-2.9079,-2.9091,-2.911,-2.9147,-2.915,-2.9164,-2.9169,-2.9173,-2.9177,-2.9198,-2.9205,-2.9134,-2.9133,-2.9133,0,0,-2.8955,-2.8965,-2.8978,-2.9004,-2.9013,-2.9035,-2.9016,-2.9039,-2.9055,-2.9043,-2.9072,-2.9079,-2.9093,-2.9127,-2.9143,-2.9133,-2.9197,-2.9177,-2.918,-2.9182,-2.9202,-2.9209,-2.9215,-2.9136,-2.9135,-2.9135,0,0,-2.8996,-2.9006,-2.9032,-2.9043,-2.9059,-2.9062,-2.9069,-2.9082,-2.9086,-2.9116,-2.9108,-2.9127,-2.916,-2.9171,-2.9181,-2.9229,-2.9221,-2.9235,-2.926,-2.9281,-2.9286,-2.9291,-2.9309,-2.9316,-2.9239,-2.9239,-2.9239,0,-2.9014,-2.9047,-2.9046,-2.9071,-2.9083,-2.9074,-2.9101,-2.9112,-2.9132,-2.9141,-2.913,-2.9173,-2.9181,-2.9219,-2.9231,-2.9239,-2.9247,-2.9233,-2.9286,-2.9291,-2.9295,-2.9312,-2.9319,-2.924,-2.924,-2.924,-2.924,0,-2.9069,-2.9092,-2.9111,-2.9133,-2.9147,-2.9173,-2.9177,-2.9191,-2.9189,-2.9193,-2.9225,-2.9236,-2.9256,-2.9265,-2.9263,-2.9303,-2.9297,-2.9286,-2.9266,-2.9304,-2.932,-2.9326,-2.9243,-2.9242,-2.9241,-2.9241,0,0,-2.912,-2.9143,-2.915,-2.9161,-2.9178,-2.9196,-2.9222,-2.9243,-2.9256,-2.9271,-2.9293,-2.9322,-2.9313,-2.9324,-2.9323,-2.9342,-2.938,-2.9329,-2.9329,-2.9338,-2.9427,-2.9435,-2.9442,-2.9376,-2.9377,-2.9378,-2.9426,0,-2.9163,-2.9208,-2.921,-2.9252,-2.9274,-2.9267,-2.9289,-2.9303,-2.9308,-2.9328,-2.9333,-2.9354,-2.934,-2.9347,-2.9365,-2.9372,-2.9398,-2.9368,-2.9396,-2.9397,-2.9392,-2.945,-2.9458,-2.9503,-2.9432,-2.9433,-2.9433,0,-2.9218,-2.9237,-2.9281,-2.9297,-2.9307,-2.9327,-2.9348,-2.9366,-2.9382,-2.9384,-2.9398,-2.9395,-2.9422,-2.9402,-2.9439,-2.9419,-2.9431,-2.9436,-2.9438,-2.944,-2.9417,-2.9454,-2.9517,-2.9524,-2.9443,-2.9442,-2.9442,0,-2.9252,-2.9288,-2.9319,-2.9328,-2.9348,-2.9363,-2.9372,-2.9386,-2.94,-2.9418,-2.9427,-2.9447,-2.9459,-2.9475,-2.9478,-2.9463,-2.9515,-2.9495,-2.9519,-2.9519,-2.9529,-2.9529,-2.9595,-2.9537,-2.9537,-2.9537,-2.9537,0,-2.9299,-2.9327,-2.9335,-2.9354,-2.9385,-2.9387,-2.9418,-2.9426,-2.9439,-2.946,-2.9455,-2.9475,-2.9477,-2.9498,-2.95,-2.9531,-2.9536,-2.9539,-2.954,-2.954,-2.9539,-2.9547,-2.9544,-2.9538,-2.9538,-2.9538,-2.9537,0,-2.9341,-2.9348,-2.9382,-2.9399,-2.9404,-2.9426,-2.9441,-2.9459,-2.9465,-2.9492,-2.9498,-2.9507,-2.9531,-2.9536,-2.9564,-2.9565,-2.9603,-2.96,-2.9598,-2.9597,-2.9621,-2.9619,-2.9694,-2.9704,-2.964,-2.964,-2.9641,0,-2.9371,-2.9392,-2.9412,-2.9427,-2.9437,-2.9459,-2.9474,-2.9477,-2.9492,-2.9513,-2.9529,-2.9553,-2.9572,-2.9611,-2.962,-2.9642,-2.964,-2.9665,-2.9643,-2.9643,-2.9641,-2.9639,-2.9642,-2.9669,-2.9669,-2.967,-2.967,0,-2.9423,-2.9426,-2.9447,-2.947,-2.9488,-2.9505,-2.9522,-2.9534,-2.954,-2.9557,-2.9583,-2.9598,-2.9628,-2.9652,-2.9674,-2.9683,-2.9678,-2.9678,-2.9684,-2.9684,-2.9683,-2.9685,-2.9609,-2.9676,-2.9675,-2.9675,-2.9674,-2.9674,-2.946,-2.948,-2.9497,-2.9521,-2.9535,-2.9551,-2.9571,-2.958,-2.9601,-2.9626,-2.9627,-2.9655,-2.9672,-2.9701,-2.9712,-2.9734,-2.9726,-2.9735,-2.9738,-2.974,-2.9743,-2.968,-2.9738,-2.9738,-2.9738,-2.9738,-2.9737,0,-2.9513,-2.9524,-2.9547,-2.9571,-2.9591,-2.9586,-2.9605,-2.9621,-2.9646,-2.9663,-2.9682,-2.9712,-2.9736,-2.9748,-2.9771,-2.9787,-2.9785,-2.9793,-2.9792,-2.9794,-2.9748,-2.974,-2.9794,-2.9794,-2.9794,-2.9794,-2.9794,-2.9794,-2.9542,-2.9575,-2.958,-2.962,-2.9631,-2.9659,-2.9671,-2.9687,-2.97,-2.9734,-2.9754,-2.9762,-2.9777,-2.9802,-2.9824,-2.9827,-2.9836,-2.9845,-2.9847,-2.9803,-2.9797,-2.9792,-2.9784,-2.9847,-2.9847,-2.9891,-2.9892,-2.9892]}]]